Location: Burtsch�tz
(51.0528°N, 12.1764°E)
Time: 14:39:10
(UTC+00:00)

Meteor 2-1 Rocket - Pass Details

Date: 29 October 2020
Orbit: 830 x 906 km, 81.3° (Epoch: 28 November)

Event Time Altitude Azimuth Distance (km) Brightness Sun altitude
Rises 17:21:01 0° 174° (S) 3,364 7.3 -14.7°
Reaches altitude 10° 17:23:28 10° 169° (S) 2,433 6.5 -15.1°
Maximum altitude 17:28:46 51° 95° (E) 1,042 4.3 -16.0°
Drops below altitude 10° 17:34:07 10° 21° (NNE) 2,461 6.4 -16.8°
Sets 17:36:36 0° 16° (NNE) 3,407 7.2 -17.2°
